Regional Weather Roundup
Issued by NWS Upton, NY

Current Version | Previous Version | Graphics & Text | Print | Product List | Glossary Off
Versions: 1 2 3 4 5 6 7 8 9 10 11 12 13 14 15 16 17 18 19 20 21 22 23 24 25 26 27 28 29 30 31 32

000
ASUS41 KOKX 241804
RWROKX

REGIONAL WEATHER ROUNDUP
NATIONAL WEATHER SERVICE NEW YORK NY
200 PM EDT WED AUG 24 2016

NOTE: "FAIR" INDICATES FEW OR NO CLOUDS BELOW 12,000 FEET WITH NO
SIGNIFICANT WEATHER AND/OR OBSTRUCTIONS TO VISIBILITY.

NYZ071-072-176-178-NJZ106-104-241900-
NEW YORK CITY METRO AREA

CITY           SKY/WX    TMP DP  RH WIND       PRES   REMARKS
Central Park   SUNNY     86  59  39 CALM      30.24F
LaGuardia APRT MOSUNNY   88  56  33 VRB6      30.21F
Kennedy INTL   MOSUNNY   85  60  42 S13G18    30.24F
Newark/Liberty MOSUNNY   88  57  34 W8G18     30.21F
Bronx Bot Gard   N/A     86  55  35 W14       30.22F
Wall St Helipt CLEAR     86  61  42 SW8       30.23F
Teterboro      SUNNY     86  55  34 VRB5      30.20F
$$

NYZ177-179-078>081-241900-
LONG ISLAND NEW YORK

CITY           SKY/WX    TMP DP  RH WIND       PRES   REMARKS
Farmingdale    SUNNY     84  56  38 S14       30.23F
MacArthur/ISP  MOSUNNY   84  58  40 S13       30.22F
Shirley        SUNNY     82  58  43 S13       30.24S
Riverhead      NOT AVBL
Westhampton    SUNNY     82  57  42 S10       30.25F
Southampton      N/A     79  68  69 SW3       30.21S
Bridgehampton    N/A     82  64  54 CALM      30.23S
East Hampton   FAIR      79  63  56 S7        30.24S
Montauk          N/A     80  65  59 VRB3      30.26R
$$

NYZ052-065-067-241900-
HUDSON VALLEY

CITY           SKY/WX    TMP DP  RH WIND       PRES   REMARKS
White Plains   SUNNY     84  55  36 SW9       30.22F
Newburgh       NOT AVBL
Montgomery     SUNNY     84  64  50 SW12      30.21F
Poughkeepsie   SUNNY     85  58  39 SW9       30.20F
Albany         MOSUNNY   83  61  47 SE7       30.19F
$$

NJZ001-105-106-008-010-013-015-019>022-104-241900-
NEW JERSEY

CITY           SKY/WX    TMP DP  RH WIND       PRES   REMARKS
Newark/Liberty MOSUNNY   88  57  34 W8G18     30.21F
Teterboro      SUNNY     86  55  34 VRB5      30.20F
Caldwell       SUNNY     86  59  39 VRB6      30.22F
Morristown     MOSUNNY   84  61  45 W6        30.23F
Somerville     PTSUNNY   84  63  49 S7        30.21F
Linden         FAIR      86  55  34 W10       30.24S
Sussex         SUNNY     82  61  48 VRB5      30.23F
Abdover          N/A     82  60  47 VRB6      30.24F
Trenton        SUNNY     83  59  44 VRB5      30.23F
Millville      MOSUNNY   82  64  54 CALM      30.26F
Atlantic City  MOSUNNY   83  61  47 SE7       30.25F
Wrightstown    SUNNY     84  60  44 VRB6      30.22F
Toms River     MOSUNNY   85  61  44 VRB7      30.24F
Belmar         SUNNY     85  60  42 SW7       30.25F
$$

PAZ047>061-062-071-241900-
EASTERN PENNSYLVANIA

CITY           SKY/WX    TMP DP  RH WIND       PRES   REMARKS
Philadelphia   MOSUNNY   83  60  45 W8        30.25F
Allentown      SUNNY     84  62  47 SW10      30.24F
Scranton       PTSUNNY   82  62  50 VRB6      30.23F
$$

CTZ002-004>006-009-010-012-RIZ004-006-007-MAZ004-011-015-241900-
SOUTHERN NEW ENGLAND
 IN CT

CITY           SKY/WX    TMP DP  RH WIND       PRES   REMARKS
Bradley INTL   MOSUNNY   85  57  38 SW9       30.21F
Hartford       SUNNY     87  59  38 SW7       30.21S
Danbury        SUNNY     81  58  45 VRB5      30.24F
Wtrbury/Oxford MOSUNNY   81  55  41 SW6       30.27F
Bridgeport     SUNNY     83  58  42 S9        30.22F
Meriden        SUNNY     86  56  35 S7        30.21F
New Haven      MOSUNNY   81  62  52 S9        30.23F
Chester        FAIR      82  54  36 S7        30.24S
Groton         SUNNY     82  63  52 SW9       30.23S
Wilimantic     SUNNY     84  59  42 VRB5      30.23F

 IN RI

CITY           SKY/WX    TMP DP  RH WIND       PRES   REMARKS
Providence     MOSUNNY   84  61  45 S7        30.21F
Block Island   SUNNY     78  65  63 S12       30.25F
Westerly       SUNNY     83  59  44 SW6       30.25S
 IN MA

CITY           SKY/WX    TMP DP  RH WIND       PRES   REMARKS
Boston         MOSUNNY   87  58  37 SW9       30.18F
Worcester      SUNNY     80  56  43 SW13      30.25S
Westfield      SUNNY     86  58  38 SW7       30.20F
Provincetown   SUNNY     84  62  47 VRB7      30.21F
Nantucket      SUNNY     76  67  73 SW14      30.24F
$$

ANZ330-335-338-340-345-350-353-355-241900-
COASTAL MARINE OBSERVATIONS


STATION/POSITION TIME  SKY/WX   TEMP    WIND        PRES    VSBY  WAVE
                                AIR SEA DIR/SP/G                  HT/PER
                 (UTC)          (F)     (DEG/KT/KT) (MB)    (MI)  (FT/S)
NY HARB ENTRANCE 1650            76 78  190/  4/  4 1024.5          1/12
20S FIRE ISLAND  1650            75 77  260/  6/  8 1024.6          2/13
GREAT SOUTH BAY  1715            76 80  210/ 12/ 14   N/A
23 SSW MONTAUK P 1650            74 75  220/  8/ 10 1024.9          2/12
15 E BARNEGAT LI NOT AVBL
HUDSON CANYON    1650            75 79              1025.3          2/12
KINGS POINT      1700            81 76              1023.6
EXECUTION ROCKS  1700            80     180/  4/  6   N/A
CENTRAL LI SOUND 1700            75 76  260/  6/  6   N/A           1
EASTERN LI SOUND 1700            74 71  250/  6/  8   N/A
ROBBINS REEF     1700            79     150/ 14/ 15 1023.3
$$


>>>>>>>>>>>>>>>>>>>>>>>>>>>> KEY <<<<<<<<<<<<<<<<<<<<<<<<<<<
>                                                          <
>     SKY/WX - Sky Condition/Present Weather               <
>     TMP    - Temperature in Fahrenheit                   <
>     DP     - Dew Point in Fahrenheit                     <
>     RH     - Relative Humidity in Percent                <
>     WIND   - Direction (from) and Speed in MPH           <
>     PRES   - Mean Sea Level Pressure (inches of Hg)      <
>     WCI    - Wind Chill Index                            <
>     VSB    - VISIBILITY IN MILES                         <
>     HX     - HEAT INDEX                                  <
>     TC     - TEMPERATURE IN CELSIUS                      <
>     VRB    - VARIABLE WIND DIRECTION                     <
>                                                          <
>>>>>>>>>>>>>>>>>>>>>>>>>>>> KEY <<<<<<<<<<<<<<<<<<<<<<<<<<<




USA.gov is the U.S. government's official web portal to all federal, state and local government web resources and services.